Lafayette, IN

11:25 AM EDT on June 23, 2017 (GMT -0400)
Purdue Univ

Weather History for KLAF - November, 2011

Change the Weather History Date:

Monday, November 14, 2011

  Actual Average Record
Temperature  
Mean Temperature 59 °F 44 °F  
Max Temperature 72 °F 52 °F 75 °F (1971)
Min Temperature 46 °F 35 °F 9 °F (1986)
Degree Days  
Heating Degree Days 6 21  
Month to date heating degree days 187 260  
Since 1 July heating degree days 601 694  
Cooling Degree Days 0 0  
Month to date cooling degree days 0 0  
Year to date cooling degree days 1246 982  
Growing Degree Days 8 (Base 50)    
Moisture  
Dew Point 52 °F    
Average Humidity 78    
Maximum Humidity 93    
Minimum Humidity 62    
Precipitation  
Precipitation 0.93 in 0.12 in 1.31 in (1993)
Month to date precipitation 1.88 1.34  
Year to date precipitation 37.54 32.44  
Sea Level Pressure  
Sea Level Pressure 29.62 in    
Wind  
Wind Speed 6 mph (WNW)    
Max Wind Speed 30 mph    
Max Gust Speed 51 mph    
Visibility 8 miles    
Events Rain , Thunderstorm    
T = Trace of Precipitation, MM = Missing Value Source: NWS Daily Summary

Daily Weather History Graph

Daily Weather History Graph

Search for Another Location

Airport or City:

Trip Planner

Search our weather history database for the weather conditions in past years. The results will help you decide how hot, cold, wet, or windy it might be!

Date:

Astronomy

Nov. 14, 2011 Rise Set
Actual Time 7:32 AM EST 5:31 PM EST
Civil Twilight 7:03 AM EST 6:00 PM EST
Nautical Twilight 6:30 AM EST 6:33 PM EST
Astronomical Twilight 5:58 AM EST 7:05 PM EST
Moon 8:37 PM EST (11/14) 10:50 AM EST (11/14)
Length of Visible Light 10h 57m
Length of Day
9h 59m
Waning Gibbous, 87% of the Moon is Illuminated
Nov 14
Waning Gibbous
Nov 18
Last Quarter
Nov 25
New
Dec 2
First Quarter
Dec 10
Full

Hourly Weather History & Observations

Time (EST) Temp. Dew Point Humidity Pressure Visibility Wind Dir Wind Speed Gust Speed Precip Events Conditions
12:54 AM 63.0 °F 57.0 °F 81% 29.66 in 10.0 mi West 5.8 mph - 0.00 in   Mostly Cloudy
1:54 AM 61.0 °F 57.0 °F 87% 29.65 in 10.0 mi Calm Calm - 0.00 in   Clear
2:54 AM 59.0 °F 55.9 °F 90% 29.65 in 10.0 mi Calm Calm - N/A   Partly Cloudy
3:11 AM 55.4 °F 53.6 °F 94% 29.66 in 5.0 mi NNW 3.5 mph - N/A   Mostly Cloudy
3:54 AM 57.9 °F 55.0 °F 90% 29.65 in 10.0 mi Calm Calm - N/A   Mostly Cloudy
4:43 AM 57.2 °F 48.2 °F 72% 29.66 in 10.0 mi North 6.9 mph - N/A   Overcast
4:54 AM 57.0 °F 45.0 °F 64% 29.66 in 10.0 mi North 6.9 mph - N/A   Overcast
5:43 AM 55.4 °F 39.2 °F 54% 29.67 in 10.0 mi North 5.8 mph - 0.00 in Rain , Thunderstorm Light Rain
5:54 AM 54.0 °F 41.0 °F 62% 29.67 in 10.0 mi Calm Calm - 0.01 in Rain , Thunderstorm Rain
6:15 AM 51.8 °F 44.6 °F 76% 29.68 in 8.0 mi North 4.6 mph - 0.05 in Rain Light Rain
6:24 AM 50.0 °F 46.4 °F 87% 29.68 in 8.0 mi Calm Calm - 0.07 in Rain Rain
7:54 AM 50.0 °F 44.1 °F 80% 29.67 in 10.0 mi SE 5.8 mph - 0.00 in Rain Light Rain
8:54 AM 50.0 °F 45.0 °F 83% 29.65 in 10.0 mi SE 4.6 mph - 0.00 in Thunderstorm Overcast
9:03 AM 51.8 °F 44.6 °F 76% 29.65 in 10.0 mi SE 5.8 mph - N/A   Overcast
9:39 AM 51.8 °F 46.4 °F 82% 29.63 in 10.0 mi ESE 6.9 mph - N/A   Overcast
9:54 AM 52.0 °F 48.0 °F 86% 29.62 in 10.0 mi SE 6.9 mph - N/A Thunderstorm Overcast
10:10 AM 53.6 °F 50.0 °F 88% 29.61 in 10.0 mi SE 6.9 mph - N/A   Overcast
10:33 AM 55.4 °F 51.8 °F 88% 29.60 in 10.0 mi SSE 4.6 mph - N/A   Overcast
10:54 AM 57.9 °F 54.0 °F 87% 29.57 in 10.0 mi SSE 4.6 mph - N/A   Overcast
11:54 AM 66.9 °F 60.1 °F 79% 29.54 in 10.0 mi SSW 18.4 mph 29.9 mph N/A   Overcast
12:54 PM 69.1 °F 61.0 °F 75% 29.53 in 10.0 mi SSW 17.3 mph 26.5 mph N/A   Overcast
1:01 PM 69.8 °F 60.8 °F 73% 29.53 in 10.0 mi WSW 15.0 mph 31.1 mph N/A   Overcast
2:54 PM 71.1 °F 61.0 °F 70% 29.49 in 10.0 mi SW 16.1 mph 36.8 mph N/A   Partly Cloudy
3:08 PM 71.6 °F 60.8 °F 69% 29.49 in 10.0 mi SSW 16.1 mph 29.9 mph N/A Thunderstorm Mostly Cloudy
3:35 PM 62.6 °F 57.2 °F 82% 29.54 in 10.0 mi WNW 16.1 mph 26.5 mph N/A Thunderstorm Thunderstorm
3:38 PM 60.8 °F 57.2 °F 88% 29.56 in 1.0 mi West 29.9 mph 50.6 mph 0.15 in Rain , Thunderstorm Thunderstorms and Rain
3:47 PM 57.2 °F 55.4 °F 94% 29.54 in 0.8 mi West 16.1 mph 50.6 mph 0.48 in Rain , Thunderstorm Heavy Thunderstorms and Rain
3:54 PM 59.0 °F 55.9 °F 90% 29.56 in 1.2 mi WNW 9.2 mph - 0.63 in Rain , Thunderstorm Heavy Thunderstorms and Rain
4:04 PM 57.2 °F 55.4 °F 94% 29.57 in 1.5 mi North 9.2 mph - 0.15 in Rain , Thunderstorm Heavy Thunderstorms and Rain
4:09 PM 57.2 °F 55.4 °F 94% 29.56 in 3.0 mi North 10.4 mph - 0.16 in Rain , Thunderstorm Thunderstorms and Rain
4:19 PM 57.2 °F 53.6 °F 88% 29.57 in 5.0 mi NNW 5.8 mph - 0.19 in Rain , Thunderstorm Light Thunderstorms and Rain
4:52 PM 55.4 °F 53.6 °F 94% 29.61 in 10.0 mi West 5.8 mph - 0.19 in   Overcast
4:54 PM 55.9 °F 53.1 °F 90% 29.61 in 10.0 mi West 3.5 mph - 0.19 in   Overcast
5:54 PM 53.1 °F 51.1 °F 93% 29.62 in 10.0 mi North 4.6 mph - N/A   Clear
6:54 PM 50.0 °F 48.0 °F 93% 29.68 in 10.0 mi North 5.8 mph - N/A   Clear
7:54 PM 48.9 °F 46.9 °F 93% 29.70 in 10.0 mi North 3.5 mph - N/A   Clear
8:54 PM 46.9 °F 45.0 °F 93% 29.70 in 4.0 mi Calm Calm - N/A   Clear
10:54 PM 48.0 °F 46.0 °F 93% 29.74 in 6.0 mi Calm Calm - N/A   Clear